sat.trackr.live / text

‹ back to catalog

STARLINK-34090

NORAD 63976 · 2025-099AA

PAYLOAD ACTIVE UNKNOWN

§ Identity

Operator
Country
US
Launch date
2025-05-13
Launch site
AFETR
Launch vehicle
Mass (kg)
RCS (m²)

Purposes: comms

External: N2YO · Heavens-Above · Gunter

§ Orbital elements

Epoch: 2026-09-20T23:41:32.587008Z

Period
94.27 min
Inclination
42.9974°
Eccentricity
0.0001247
Mean motion
15.27579010 rev/d
Perigee alt
482.2 km
Apogee alt
483.9 km
Semi-major
6,861.2 km
B*
3.7867e-4
RAAN
149.8858°
Arg perigee
272.5577°
Mean anomaly
87.5132°
Rev number
7,715

§ Raw data

STARLINK-340901 63976U 25099AA  26263.98718272  .00010172  00000+0  37867-3 0  99932 63976  42.9974 149.8858 0001247 272.5577  87.5132 15.27579010 77153

JSON: /api/v1/satellites/63976 · /tle

For live sub-satellite position, see the globe view (requires WebGL).

§ Visibility from observer

Set your observer location to see the next 7 days of passes ≥ 10°. The values pass through the URL so the page stays shareable.

No JS? Fill the form by hand. The geolocation button needs JavaScript.